Home   Weather   Växjö   Past weeks

Flag for Sweden Past Weather in Växjö, Sweden — Yesterday and Last 2 Weeks

Now
25 °F

Cold.


Feels Like: 18 °F
Forecast: 27 / 36 °F
Wind: 6 mph from Northwest

Location: Vaxjo Airport

Current Time: Dec 3, 2016 at 3:33:51 am

Latest Report: Dec 3, 2016 at 3:20 am


Visibility: N/A

Pressure: 30.09 "Hg

Humidity: 86%

Dew Point: 21 °F

Location of VäxjöLocation

Past Weather in Växjö — Graph

°F

Växjö Temperature Yesterday

Maximum temperature yesterday: 36 °F (at 12:50 pm)
Minimum temperature yesterday: 23 °F (at 11:50 pm)
Average temperature yesterday: 31 °F

High & Low Weather Summary for the Past Weeks

 TemperatureHumidityPressure
High50 °F (Nov 23, 12:50 pm)100% (Nov 18, 2:50 am)30.36 "Hg (Nov 18, 2:50 am)
Low23 °F (Dec 2, 11:50 pm)47% (Nov 27, 9:20 pm)29.21 "Hg (Nov 18, 11:20 am)
Average38 °F86%29.85 "Hg
* Reported Nov 18 2:20 am — Dec 3 2:20 am, Växjö, Weather by CustomWeather, © 2016

Note: Actual official high and low records may vary slightly from our data, if they occured in-between our weather recording intervals... More about our weather records

Advertising

Växjö Weather History for the Previous 24 Hours

Scroll right to see more
 ConditionsComfort  
Time TempWeatherWind HumidityBarometerVisibility
2:20 am
Sat, Dec 3
25 °FCold.8 mph86%30.09 "HgN/A
1:50 am25 °FCold.6 mph86%30.09 "HgN/A
1:20 am25 °FCold.7 mph86%30.09 "HgN/A
12:50 am27 °FChilly.8 mph80%30.09 "HgN/A
12:20 am25 °FCold.7 mph86%30.09 "HgN/A
11:50 pm
Fri, Dec 2
23 °FCold.6 mph86%30.09 "HgN/A
11:20 pm25 °FCold.6 mph86%30.09 "HgN/A
10:50 pm25 °FCold.3 mph86%30.09 "HgN/A
10:20 pm27 °FChilly.5 mph80%30.09 "HgN/A
9:50 pm27 °FClear.7 mph80%30.07 "Hg10 mi
9:20 pm28 °FClear.6 mph80%30.07 "Hg10 mi
8:50 pm28 °FClear.7 mph80%30.07 "Hg10 mi
8:20 pm30 °FClear.8 mph80%30.07 "Hg10 mi
7:50 pm32 °FPassing clouds.8 mph75%30.04 "HgN/A
7:20 pm34 °FPassing clouds.9 mph70%30.04 "HgN/A
6:50 pm32 °FPassing clouds.10 mph80%30.01 "HgN/A
6:20 pm32 °FOvercast.9 mph80%30.01 "HgN/A
5:50 pm34 °FClear.10 mph75%30.01 "Hg10 mi
5:20 pm34 °FPassing clouds.10 mph75%29.98 "HgN/A
4:50 pm34 °FPassing clouds.10 mph75%29.98 "HgN/A
4:20 pm34 °FPassing clouds.9 mph75%29.98 "HgN/A
3:50 pm34 °FPassing clouds.9 mph75%29.98 "HgN/A
3:20 pm34 °FScattered clouds.10 mph75%29.95 "HgN/A
2:50 pm36 °FPassing clouds.10 mph75%29.95 "HgN/A
2:20 pm36 °FSunny.12 mph75%29.92 "Hg10 mi
1:50 pm36 °FSunny.13 mph75%29.92 "Hg10 mi
1:20 pm36 °FPassing clouds.12 mph75%29.92 "HgN/A
12:50 pm36 °FSunny.12 mph75%29.92 "Hg10 mi
12:20 pm34 °FPassing clouds.10 mph81%29.89 "HgN/A
11:50 am34 °FScattered clouds.12 mph81%29.89 "HgN/A
11:20 am34 °FScattered clouds.9 mph81%29.89 "HgN/A
10:50 am32 °FPartly sunny.8 mph80%29.86 "HgN/A
10:20 am30 °FScattered clouds.8 mph86%29.86 "HgN/A
9:50 am30 °FSunny.7 mph80%29.86 "Hg10 mi
9:20 am28 °FSunny.7 mph86%29.83 "Hg10 mi
8:50 am28 °FSunny.10 mph86%29.83 "Hg10 mi
8:20 am28 °FSunny.9 mph86%29.80 "Hg10 mi
7:50 am28 °FClear.9 mph86%29.80 "Hg10 mi
7:20 am28 °FPassing clouds.10 mph86%29.77 "HgN/A
6:50 am30 °FClear.13 mph80%29.77 "Hg10 mi
6:20 am30 °FClear.12 mph86%29.77 "Hg10 mi
5:50 am28 °FClear.10 mph93%29.77 "Hg10 mi
5:20 am30 °FChilly.10 mph86%29.74 "HgN/A
4:50 am30 °FChilly.9 mph86%29.74 "HgN/A
4:20 am30 °FChilly.10 mph86%29.74 "HgN/A
3:50 am30 °FPassing clouds.9 mph93%29.71 "HgN/A
3:20 am30 °FPassing clouds.10 mph93%29.71 "HgN/A
Weather by CustomWeather, © 2016

See weather overviewHow to use our weather pages